TimeCDT,TemperatureF,Dew PointF,Humidity,Sea Level PressureIn,VisibilityMPH,Wind Direction,Wind SpeedMPH,Gust SpeedMPH,PrecipitationIn,Events,Conditions,WindDirDegrees,DateUTC
12:17 AM,32.0,28.4,87,30.25,10.0,ESE,4.6,-,N/A,,Clear,120,2013-03-28 05:17:00
12:37 AM,32.0,28.4,87,30.25,10.0,ESE,3.5,-,N/A,,Clear,120,2013-03-28 05:37:00
12:57 AM,32.0,28.4,87,30.25,10.0,ESE,3.5,-,N/A,,Scattered Clouds,120,2013-03-28 05:57:00
1:17 AM,32.0,28.4,87,30.26,10.0,Calm,Calm,-,N/A,,Scattered Clouds,0,2013-03-28 06:17:00
1:37 AM,32.0,28.4,87,30.25,10.0,SE,3.5,-,N/A,,Clear,140,2013-03-28 06:37:00
1:57 AM,32.0,28.4,87,30.25,10.0,SE,4.6,-,N/A,,Clear,130,2013-03-28 06:57:00
2:17 AM,32.0,28.4,87,30.25,10.0,SE,4.6,-,N/A,,Clear,140,2013-03-28 07:17:00
2:37 AM,32.0,28.4,87,30.25,10.0,SE,5.8,-,N/A,,Clear,140,2013-03-28 07:37:00
2:57 AM,32.0,28.4,87,30.25,10.0,SE,5.8,-,N/A,,Clear,130,2013-03-28 07:57:00
3:17 AM,32.0,28.4,87,30.24,10.0,SE,5.8,-,N/A,,Clear,140,2013-03-28 08:17:00
3:37 AM,32.0,28.4,87,30.24,7.0,SE,4.6,-,N/A,,Clear,140,2013-03-28 08:37:00
3:57 AM,30.2,28.4,93,30.24,7.0,SE,4.6,-,N/A,,Clear,140,2013-03-28 08:57:00
4:17 AM,30.2,28.4,93,30.24,7.0,Calm,Calm,-,N/A,,Clear,0,2013-03-28 09:17:00
4:37 AM,30.2,26.6,86,30.24,7.0,SE,3.5,-,N/A,,Clear,130,2013-03-28 09:37:00
4:57 AM,30.2,28.4,93,30.23,7.0,SE,3.5,-,N/A,,Scattered Clouds,130,2013-03-28 09:57:00
5:17 AM,30.2,28.4,93,30.23,7.0,SE,4.6,-,N/A,,Scattered Clouds,130,2013-03-28 10:17:00
5:37 AM,30.2,28.4,93,30.22,10.0,SE,4.6,-,N/A,,Clear,130,2013-03-28 10:37:00
5:57 AM,30.2,26.6,86,30.23,10.0,SE,4.6,-,N/A,,Clear,140,2013-03-28 10:57:00
6:17 AM,30.2,26.6,86,30.23,10.0,SSE,3.5,-,N/A,,Mostly Cloudy,150,2013-03-28 11:17:00
6:37 AM,30.2,26.6,86,30.23,10.0,Calm,Calm,-,N/A,,Mostly Cloudy,0,2013-03-28 11:37:00
6:57 AM,30.2,26.6,86,30.23,10.0,SE,4.6,-,N/A,,Overcast,140,2013-03-28 11:57:00
7:17 AM,30.2,26.6,86,30.23,10.0,SE,5.8,-,N/A,,Mostly Cloudy,130,2013-03-28 12:17:00
7:37 AM,30.2,26.6,86,30.24,7.0,SE,4.6,-,N/A,,Scattered Clouds,140,2013-03-28 12:37:00
7:57 AM,30.2,26.6,86,30.24,7.0,SE,4.6,-,N/A,,Clear,140,2013-03-28 12:57:00
8:17 AM,32.0,28.4,87,30.24,7.0,SSE,3.5,-,N/A,,Clear,150,2013-03-28 13:17:00
8:37 AM,32.0,28.4,87,30.24,7.0,SSE,6.9,-,N/A,,Clear,150,2013-03-28 13:37:00
8:57 AM,32.0,30.2,93,30.24,7.0,SSE,5.8,-,N/A,,Clear,150,2013-03-28 13:57:00
9:17 AM,33.8,30.2,87,30.24,10.0,SSE,5.8,-,N/A,,Clear,150,2013-03-28 14:17:00
9:37 AM,35.6,30.2,81,30.23,10.0,SSE,8.1,-,N/A,,Clear,150,2013-03-28 14:37:00
9:57 AM,37.4,32.0,81,30.23,10.0,SSE,11.5,-,N/A,,Clear,160,2013-03-28 14:57:00
10:18 AM,39.2,32.0,75,30.23,10.0,South,9.2,-,N/A,,Clear,170,2013-03-28 15:18:00
10:37 AM,41.0,32.0,70,30.23,10.0,SSE,10.4,-,N/A,,Clear,160,2013-03-28 15:37:00
10:57 AM,42.8,32.0,66,30.23,10.0,South,11.5,-,N/A,,Clear,180,2013-03-28 15:57:00
11:17 AM,42.8,32.0,66,30.23,10.0,South,10.4,-,N/A,,Clear,170,2013-03-28 16:17:00
11:37 AM,44.6,32.0,61,30.23,10.0,South,13.8,-,N/A,,Clear,170,2013-03-28 16:37:00
11:57 AM,44.6,32.0,61,30.23,10.0,South,11.5,-,N/A,,Clear,170,2013-03-28 16:57:00
12:17 PM,46.4,32.0,57,30.23,10.0,South,13.8,19.6,N/A,,Clear,190,2013-03-28 17:17:00
12:37 PM,48.2,32.0,54,30.22,10.0,South,12.7,-,N/A,,Clear,180,2013-03-28 17:37:00
12:57 PM,50.0,32.0,50,30.21,10.0,South,12.7,-,N/A,,Clear,170,2013-03-28 17:57:00
1:17 PM,50.0,33.8,54,30.21,10.0,South,17.3,-,N/A,,Clear,180,2013-03-28 18:17:00
1:37 PM,51.8,33.8,50,30.21,10.0,South,15.0,19.6,N/A,,Clear,180,2013-03-28 18:37:00
1:57 PM,50.0,32.0,50,30.20,10.0,South,15.0,19.6,N/A,,Clear,190,2013-03-28 18:57:00
2:17 PM,51.8,33.8,50,30.20,10.0,South,12.7,18.4,N/A,,Clear,170,2013-03-28 19:17:00
2:37 PM,53.6,32.0,44,30.19,10.0,South,15.0,18.4,N/A,,Clear,190,2013-03-28 19:37:00
2:57 PM,53.6,32.0,44,30.19,10.0,SSW,12.7,17.3,N/A,,Clear,200,2013-03-28 19:57:00
3:17 PM,53.6,32.0,44,30.18,10.0,SSW,12.7,18.4,N/A,,Clear,200,2013-03-28 20:17:00
3:37 PM,53.6,32.0,44,30.17,10.0,South,10.4,18.4,N/A,,Scattered Clouds,190,2013-03-28 20:37:00
3:57 PM,53.6,32.0,44,30.17,10.0,South,8.1,-,N/A,,Clear,180,2013-03-28 20:57:00
4:17 PM,55.4,32.0,41,30.17,10.0,South,13.8,19.6,N/A,,Clear,180,2013-03-28 21:17:00
4:37 PM,53.6,32.0,44,30.17,10.0,South,9.2,-,N/A,,Clear,180,2013-03-28 21:37:00
4:57 PM,55.4,32.0,41,30.17,10.0,South,13.8,-,N/A,,Clear,170,2013-03-28 21:57:00
5:17 PM,55.4,32.0,41,30.17,10.0,SSW,12.7,-,N/A,,Clear,200,2013-03-28 22:17:00
5:37 PM,53.6,32.0,44,30.17,10.0,South,11.5,-,N/A,,Clear,190,2013-03-28 22:37:00
5:57 PM,53.6,32.0,44,30.17,10.0,South,8.1,-,N/A,,Clear,180,2013-03-28 22:57:00
6:17 PM,53.6,32.0,44,30.17,1.0,SSE,12.7,-,N/A,,Haze,160,2013-03-28 23:17:00
6:37 PM,51.8,32.0,47,30.17,10.0,South,9.2,-,N/A,,Clear,170,2013-03-28 23:37:00
6:57 PM,51.8,35.6,54,30.17,10.0,SSE,9.2,-,N/A,,Scattered Clouds,160,2013-03-28 23:57:00
7:17 PM,48.2,33.8,58,30.18,10.0,SSE,5.8,-,N/A,,Clear,150,2013-03-29 00:17:00
7:37 PM,46.4,35.6,66,30.18,10.0,SE,10.4,-,N/A,,Clear,140,2013-03-29 00:37:00
7:57 PM,44.6,35.6,71,30.18,10.0,SSE,8.1,-,N/A,,Clear,150,2013-03-29 00:57:00
8:17 PM,42.8,33.8,70,30.18,10.0,SSE,6.9,-,N/A,,Clear,160,2013-03-29 01:17:00
8:37 PM,41.0,33.8,76,30.19,10.0,SSE,5.8,-,N/A,,Clear,160,2013-03-29 01:37:00
8:57 PM,41.0,32.0,70,30.19,10.0,SSE,5.8,-,N/A,,Scattered Clouds,150,2013-03-29 01:57:00
9:17 PM,37.4,33.8,87,30.20,10.0,SE,5.8,-,N/A,,Scattered Clouds,140,2013-03-29 02:17:00
9:37 PM,37.4,32.0,81,30.21,7.0,South,4.6,-,N/A,,Clear,170,2013-03-29 02:37:00
9:57 PM,35.6,32.0,87,30.21,7.0,South,5.8,-,N/A,,Clear,170,2013-03-29 02:57:00
10:17 PM,35.6,32.0,87,30.21,7.0,South,6.9,-,N/A,,Clear,170,2013-03-29 03:17:00
10:37 PM,33.8,32.0,93,30.21,7.0,SSE,4.6,-,N/A,,Clear,160,2013-03-29 03:37:00
10:57 PM,32.0,30.2,93,30.21,5.0,South,4.6,-,N/A,,Scattered Clouds,180,2013-03-29 03:57:00
11:17 PM,33.8,32.0,93,30.21,5.0,Calm,Calm,-,N/A,,Overcast,0,2013-03-29 04:17:00
11:37 PM,33.8,32.0,93,30.22,5.0,Calm,Calm,-,N/A,,Scattered Clouds,0,2013-03-29 04:37:00
11:57 PM,33.8,32.0,93,30.22,5.0,Calm,Calm,-,N/A,,Scattered Clouds,0,2013-03-29 04:57:00